Preview of NWS' New Version of Forecast
This preview is not operational and should not be used for support decisions.

Regional Weather Roundup (RWR)

Issued by National Weather Service (NWS)

                            
000
ASUS43 KMKX 171911
RWRWI 

WISCONSIN REGIONAL WEATHER ROUNDUP
NATIONAL WEATHER SERVICE MILWAUKEE/SULLIVAN WI
200 PM CDT SAT AUG 17 2019

NOTE: "FAIR" INDICATES FEW OR NO CLOUDS BELOW 12,000 FEET WITH NO
SIGNIFICANT WEATHER AND/OR OBSTRUCTIONS TO VISIBILITY.

WIZ001-002-006>008-014>016-023>028-172000-
NORTHWEST WISCONSIN
  
CITY           SKY/WX    TMP DP  RH WIND       PRES   REMARKS
SUPERIOR ARPT  PTSUNNY   82  60  47 SW14G20   29.78F HX  82           
ASHLAND        FAIR      83  58  42 SW8G17    29.82F HX  83           
HAYWARD        FAIR      79  58  48 S12G17    29.85F HX  80           
SIREN          FAIR      82  54  37 SW9       29.83F HX  81           
CUMBERLAND     FAIR      77  55  47 S7        29.85F                  
RICE LAKE      FAIR      80  59  48 SE5       29.85F HX  81           
CHETEK         FAIR      79  62  55 SE8       29.85F HX  80           
LADYSMITH      FAIR      78  62  57 S8        29.88F                  
EAU CLAIRE     FAIR      79  60  52 S8        29.85S HX  80           
MENOMONIE      FAIR      76  59  54 SE6       29.85F                  
NEW RICHMOND   FAIR      79  58  48 S8        29.84S HX  80           
OSCEOLA        FAIR      79  58  48 S10       29.86S HX  80           
$$
 
WIZ003>005-009-010-017-018-172000-
NORTH CENTRAL WISCONSIN
  
CITY           SKY/WX    TMP DP  RH WIND       PRES   REMARKS
MANITOWISH WTR FAIR      76  57  52 W6        29.88S                  
ARBOR VITAE    FAIR      80  60  50 W8        29.89R HX  81           
WOODRUFF       FAIR      80  60  50 W8        29.89R HX  81           
RHINELANDER    FAIR      79  60  52 SW6       29.90R HX  80           
EAGLE RIVER    FAIR      77  55  46 W7        29.89R                  
LAND O LAKES   FAIR      78  55  44 SW6       29.90R                  
PHILLIPS       FAIR      76  61  58 SW8       29.88F                  
TOMAHAWK       FAIR      73  61  67 CALM      29.90S                  
MEDFORD        FAIR      75  61  62 S8        29.88F                  
MERRILL        PTSUNNY   79  62  56 SW6       29.89F HX  80           
$$
 
WIZ029-030-035-036-043>047-172000-
CENTRAL WISCONSIN
  
CITY           SKY/WX    TMP DP  RH WIND       PRES   REMARKS
WAUSAU         FAIR      77  61  57 S6        29.87F                  
MOSINEE        MOSUNNY   79  63  57 W7        29.90F HX  80           
MARSHFIELD     FAIR      77  61  57 SW6       29.88F                  
STEVENS POINT  PTSUNNY   78  59  51 W3        29.89F                  
WAUPACA        FAIR      82  60  46 CALM      29.89F HX  82           
WAUTOMA        FAIR      78  62  57 VRB3      29.88F HX  80           
WISC RAPIDS    FAIR      79  60  52 MISG      29.88F HX  80           
CAMP DOUGLAS   FAIR      79  63  58 E6        29.87F HX  81           
$$
 
WIZ011>013-019>022-031-037>040-048>050-172000-
NORTHEAST WISCONSIN
  
CITY           SKY/WX    TMP DP  RH WIND       PRES   REMARKS
ANTIGO         PTSUNNY   78  60  54 SW6       29.91S                  
SHAWANO        FAIR      81  62  51 CALM      29.88S HX  82           
OCONTO         FAIR      78  65  65 S7        29.87S HX  80           
STURGEON BAY   FAIR      78  63  59 VRB3      29.88F HX  80           
GREEN BAY      FAIR      79  63  57 VRB3      29.88F HX  80           
MANITOWOC      PTSUNNY   76  65  68 SE8       29.89F                  
APPLETON       PTSUNNY   77  55  47 SW6       29.89S                  
CLINTONVILLE   FAIR      81  59  47 SW5       29.89S HX  81           
OSHKOSH        FAIR      78  61  55 VRB5      29.89S HX  80           
$$
 
WIZ032>034-041-042-053>061-172000-
SOUTHWEST WISCONSIN
  
CITY           SKY/WX    TMP DP  RH WIND       PRES   REMARKS
LA CROSSE      FAIR      81  61  50 SE5       29.84F HX  82           
SPARTA         FAIR      77  56  48 SE7       29.86F                  
VIROQUA        FAIR      78  64  61 SE3       29.87F HX  80           
BOSCOBEL       FAIR      80  61  52 VRB6      29.85F HX  81           
PRAIRIE DU CHI FAIR      77  60  55 SE3       29.85S                  
PLATTEVILLE    FAIR      78  67  68 SE7       29.88S HX  80           
$$

WIZ056-057-062-063-064-067-068-172000-
SOUTH CENTRAL WISCONSIN
  
CITY           SKY/WX    TMP DP  RH WIND       PRES   REMARKS
REEDSBURG      FAIR      78  62  59 SE3       29.87F                  
BARABOO/DELLS  FAIR      76  60  57 SE3       29.88F                  
LONE ROCK      FAIR      78  62  57 VRB3      29.86F HX  80           
MINERAL POINT  FAIR      84  64  51 MISG      29.88F HX  86           
MADISON        PTSUNNY   79  60  52 E8        29.86F HX  80           
MIDDLETON      FAIR     N/A N/A N/A NE7       29.87F                  
WATERTOWN      FAIR      78  59  53 CALM      29.88F                  
MONROE         FAIR      77  63  61 SE5       29.89R                  
JANESVILLE     MOSUNNY   79  64  61 SE8       29.87F HX  81           
$$
 
WIZ051-052-058>065-066-070>072-172000-
SOUTHEAST WISCONSIN
  
CITY           SKY/WX    TMP DP  RH WIND       PRES   REMARKS
MILWAUKEE      PTSUNNY   80  63  55 SE16      29.87F HX  81           
WAUKESHA       SUNNY     81  59  47 SE7       29.89F HX  81           
MILWAUKEE/TIMM MOSUNNY   81  55  41 SE10      29.88F HX  80           
RACINE         FAIR      79  63  57 E10       29.88F HX  80           
KENOSHA        FAIR      81  68  64 E10       29.86F HX  84           
FOND DU LAC    FAIR      81  61  50 SW5       29.89F HX  82           
SHEBOYGAN      FAIR      79  62  56 CALM      29.89F HX  80           
WEST BEND      FAIR      79  55  44 S3        29.89S                  
JUNEAU         FAIR      78  61  55 CALM      29.90F                  
$$

LSZ147-162-172000-
LAKE SUPERIOR
  
STATION/POSITION TIME  TEMP    WIND        PRES    WAVE
                       AIR SEA DIR/SP/G            HT/PER
                 (UTC) (F)     (DEG/KT/KT) (MB)    (FT/S)
W MID LAKE BUOY  1850   67 66  210/  2/  4 1009.4F   1/ 3
DEVILS ISLAND    1800   70      20/  3/  4 1009.8F
SAXON HARBOR     1840   81     210/  5/ 11 1009.5F
$$
 
LMZ867-665-643>646-172000-
LAKE MICHIGAN
  
STATION/POSITION TIME  TEMP    WIND        PRES    WAVE
                       AIR SEA DIR/SP/G            HT/PER
                 (UTC) (F)     (DEG/KT/KT) (MB)    (FT/S)
S GREEN BAY BUOY 1800   76 70  160/  6/  6 1012.2
N MID LAKE BUOY  1850   68 71  190/  6/  8 1012.3F   1/ 5
NORTHPORT PIER   1840   68     110/  3/  4 1011.9F
KEWAUNEE LAKESHO 1824   71     180/  7/ 10 1011.7
SHEBOYGAN LAKESH 1900   71     160/  9/ 10 1012.2F
PORT WASHINGTON  1830   73     150/  7/  9 1013.2F
S MID LAKE BUOY  1850   74 74  130/  6/  8 1012.3F   0
KENOSHA   LAKESH 1900   74      90/  8/ 10 1011.2
$$

TC  - TEMPERATURE IN CELSIUS
VSB - VISIBILITY IN STATUTE MILES
WCI - WIND CHILL INDEX
HX  - HEAT INDEX